Simultaneous Nadir Overpasses (SNOs) Predictions

Prediction of SNOs between NOAA-20 and AQUA Satellite Orbit:

Table of predicted SNOs for the next 14.0 days since TLE Epoch: 9/23/2023
Index Date (NOAA-20) Time (NOAA-20) Lat,Lon (NOAA-20) SZA (NOAA-20 ) Date (AQUA) Time (AQUA) Lat,Lon (AQUA) SZA (AQUA ) Distance(km) Time Diff (sec)
1 09/23/2023 19:39:16 80.88, 158.24 89.42 09/23/2023 19:39:25 80.87, 158.18 89.42 1.17 9
2 09/23/2023 20:29:58 -80.93, -33.36 90.74 09/23/2023 20:28:47 -80.93, -33.37 90.69 0.28 71
3 09/26/2023 09:23:54 -80.85, 131.63 89.57 09/26/2023 09:24:26 -80.85, 131.67 89.59 0.60 32
4 09/26/2023 10:14:35 80.92, -59.71 90.25 09/26/2023 10:13:47 80.92, -59.73 90.28 0.34 48
5 09/28/2023 23:08:31 80.86, 105.56 91.38 09/28/2023 23:09:25 80.86, 105.52 91.35 0.74 54
6 09/28/2023 23:59:13 -80.91, -86.02 88.78 09/28/2023 23:58:47 -80.92, -86.02 88.76 0.37 26
7 10/01/2023 12:53:37 -80.20, 69.92 86.14 10/01/2023 12:54:51 -80.03, 70.50 86.28 21.82 74
8 10/01/2023 13:43:50 80.91,-112.17 92.18 10/01/2023 13:43:45 80.91,-112.32 92.21 2.76 5
9 10/04/2023 03:28:29 -80.88,-138.92 86.79 10/04/2023 03:28:43 -80.89,-138.86 86.81 1.17 14
10 10/04/2023 04:19:10 80.95, 29.69 93.04 10/04/2023 04:18:04 80.95, 29.69 93.08 0.39 66
11 10/06/2023 17:13:06 80.88,-165.24 94.19 10/06/2023 17:13:38 80.88,-165.11 94.15 2.38 32



Historial Predications of SNOs between NOAA-20 and AQUA
